Погода в Елизаветовке

Украина / Запорожская область     46°56′46″N   36°24′13″E
темп.,
°C
ветер,
м/с
пор.,
м/с
влажн.,
%
обл.,
%
осадки,
мм/ч
давл.,
гПа
погр.,
м
20 июня, вс
вс2000:00+23всв10195518 0.0 1012639
03:00+22в919500 0.0 1012692
06:00+20в81657100 0.0 1012532
09:00+20в81662100 0.0 1013783
12:00+25в1114500 0.4 1012937
15:00+26вюв811490 0.4 10131230
18:00+26вюв59560 0.0 1011914
21:00+22в22760 0.0 101219
21 июня, пн
пн2100:00+20св22780 0.0 101121
03:00+20всв34792 0.0 101160
06:00+20всв48880 0.0 1011210
09:00+25в67590 0.0 1012466
12:00+28в66520 0.0 1012767
15:00+28в794522 0.1 1012988
18:00+28всв6115196 0.3 10101000
21:00+23св5117079 0.3 1010219
22 июня, вт
вт2200:00+22всв5126268 0.0 1010280
03:00+22в6125771 0.0 1010321
06:00+21в6116652 0.0 1011305
09:00+25в7104831 0.1 1012506
12:00+27вюв810415 0.0 1012876
15:00+29вюв79381 0.0 10121256
18:00+29вюв364724 0.1 10121170
21:00+24ссв3359100 0.1 101133
23 июня, ср
ср2300:00+23ссв3567100 0.0 101077
03:00+21в3680100 0.0 1011118
06:00+22ююв2377100 0.0 101264
09:00+26вюв346068 0.0 1014459
12:00+30ююв344632 0.0 1014960
15:00+32юв4442100 0.0 10141660
18:00+30юв33449 0.0 1014685
21:00+24ссз11603 0.0 101412
24 июня, чт
чт2400:00+23сз4568100 0.0 101367
03:00+22с4672100 0.0 101399
06:00+21св5870100 0.0 1013188
09:00+25ююв3369100 0.0 1014423
12:00+27юв566241 0.0 1015832
15:00+29ююв55505 0.0 10151350
18:00+28юв33575 0.0 1015783
21:00+23в117620 0.0 101512